SCOUT G-1 DEB, 40216

Orbit data source: Space-Track

SCOUT G-1 DEB, 40216 is space debris in LEO originally from a launch on Fri, 14 Nov 1986 UTC launched from the Air Force Western Test Range (AFWTR). Debris objects in space refer to the collection of defunct objects orbiting the Earth. Examples of debris include non-operational satellites, rocket bodies, and fragments generated from explosions, collisions, or faulty payload assembly.

Loading next visibility...
Identifier
40216, 1986-088E
Orbit
LEO
Country
Flag of USUS
Related business
Manufacturer
Unknown
Mission
Spacecraft
Bus & Motor
Unknown
Mass
Unknown
Launch date (UTC)
1986-11-14 (40 years ago)
Launch vehicle
Unknown
Launch site
Air Force Western Test Range (AFWTR)
Object type
Payload
Rocket body
Debris
Shape & HBR
Unknown shape, 0.1 m
Radar Cross Section
Small (<0.1 m²)

Expand to show TLE details & history
Last TLE update: 4 weeks ago

TLE from 4 weeks ago
0 SCOUT G-1 DEB
1 40216U 86088E   26147.75599702  .00003660  00000-0  24637-2 0  9996
2 40216  89.5940 161.6135 0074014 154.7336 205.7493 13.99083645621971
Epoch: 2026-05-27T18:08Z
TLE epoch observation values (Epoch: 2026-05-27T18:08:38.142Z)
Latitude
-0°
Longitude
4.14405°
Altitude
948.579 km
Speed
7.353 km/s
True Right ascension
10h 46m 27s
True Declination
0° 00' 00"
Sunlit
Object was in daylight at epoch
Visualization orbit readout
Latitude
Unknown
Longitude
Unknown
Altitude
Unknown
Speed
Unknown
Apparent Right ascension
Unknown
Apparent Declination
Unknown
Sunlit
N/A
Visualization observer readout
Local Sidereal Time
00:50:03
Azimuth
Unknown
Elevation
Unknown
Doppler factor
Unknown
Orbital elements
Apogee altitude
947.772 km
Perigee altitude
840.125 km
Semi-major axis
7,272.086 km
Eccentricity
0.0074
Inclination
89.594°
RAAN
161.6135°
Arg. of periapsis
154.7336°
True anomaly
205.38389°
Mean anomaly
205.7493°
Eccentric anomaly
205.56629°
Mean motion
3.49989 °/min
Orbital period
102.86 mins
BSTAR
0.0024637
Loading maneuver chart data...
Computing Atmospheric mass density...
Loading historical data...
Loading historical data...
Loading historical data...
Loading historical data...
Loading historical data...
Loading historical data...
Loading historical data...
Other satellites on launch #88 in the year 1986 (1986-11-14 UTC)

Documentation

Showing up to 5 results
|